TimePDT,TemperatureF,Dew PointF,Humidity,Sea Level PressureIn,VisibilityMPH,Wind Direction,Wind SpeedMPH,Gust SpeedMPH,PrecipitationIn,Events,Conditions,WindDirDegrees,DateUTC
12:53 AM,50.0,41.0,71,30.42,10.0,South,9.2,-,N/A,,Overcast,180,2006-10-26 07:53:00
1:53 AM,50.0,41.0,71,30.41,10.0,South,10.4,-,N/A,,Overcast,170,2006-10-26 08:53:00
2:53 AM,50.0,39.9,68,30.40,10.0,SSE,10.4,-,N/A,,Overcast,160,2006-10-26 09:53:00
3:53 AM,51.1,39.9,66,30.40,10.0,South,16.1,20.7,N/A,,Mostly Cloudy,190,2006-10-26 10:53:00
4:53 AM,50.0,39.9,68,30.39,10.0,South,12.7,-,N/A,,Mostly Cloudy,180,2006-10-26 11:53:00
5:53 AM,50.0,39.9,68,30.39,10.0,South,13.8,-,N/A,,Overcast,170,2006-10-26 12:53:00
6:53 AM,50.0,39.9,68,30.39,10.0,South,15.0,-,N/A,,Overcast,170,2006-10-26 13:53:00
7:53 AM,50.0,41.0,71,30.39,10.0,South,10.4,-,N/A,,Overcast,180,2006-10-26 14:53:00
8:53 AM,50.0,41.0,71,30.41,10.0,SSW,12.7,-,N/A,,Overcast,200,2006-10-26 15:53:00
9:41 AM,50.0,42.8,76,30.39,10.0,SSW,9.2,-,N/A,,Overcast,200,2006-10-26 16:41:00
9:53 AM,50.0,42.1,74,30.42,10.0,South,11.5,-,N/A,,Overcast,180,2006-10-26 16:53:00
10:53 AM,51.1,43.0,74,30.42,10.0,SSW,16.1,23.0,N/A,,Overcast,200,2006-10-26 17:53:00
11:53 AM,53.1,44.1,71,30.43,10.0,SSW,16.1,-,N/A,,Overcast,210,2006-10-26 18:53:00
12:53 PM,54.0,45.0,72,30.41,10.0,South,16.1,-,N/A,,Overcast,190,2006-10-26 19:53:00
1:53 PM,53.1,45.0,74,30.41,10.0,South,16.1,-,N/A,,Overcast,190,2006-10-26 20:53:00
2:53 PM,54.0,46.0,75,30.40,10.0,South,16.1,-,N/A,,Overcast,190,2006-10-26 21:53:00
3:53 PM,55.0,46.0,72,30.40,10.0,SSW,15.0,-,N/A,,Mostly Cloudy,210,2006-10-26 22:53:00
4:53 PM,55.0,46.0,72,30.40,10.0,SSW,13.8,-,N/A,,Overcast,200,2006-10-26 23:53:00
5:53 PM,55.0,46.9,74,30.39,10.0,SSW,13.8,-,N/A,,Overcast,210,2006-10-27 00:53:00
6:53 PM,54.0,46.9,77,30.40,10.0,SSW,11.5,-,N/A,,Overcast,210,2006-10-27 01:53:00
7:53 PM,55.0,46.0,72,30.39,10.0,South,17.3,-,N/A,,Overcast,190,2006-10-27 02:53:00
8:53 PM,54.0,46.0,75,30.39,10.0,SSW,13.8,-,N/A,,Overcast,200,2006-10-27 03:53:00
9:53 PM,54.0,46.0,75,30.40,10.0,SSW,11.5,-,N/A,,Overcast,200,2006-10-27 04:53:00
10:53 PM,54.0,46.0,75,30.40,10.0,SSW,15.0,-,N/A,,Overcast,200,2006-10-27 05:53:00
11:53 PM,54.0,46.9,77,30.40,10.0,SSW,13.8,-,N/A,,Overcast,200,2006-10-27 06:53:00